Вернуться в каталог

ONEWEB-0588

АктивенСвязьPO
NORAD 55153·PAYLOAD·🇬🇧 United Kingdom

Запущен Jan 10, 2023 с Cape Canaveral Space Force Station

Loading…

Ближайшие Пролёты (ближайшие 24 часа)

TLE

СвежийSource: CelesTrak SupGP

Эпоха: Sep 14, 2026, 21:01 UTC

1 55153C 23004P   26257.87619630 -.00000673  00000+0 -17104-2 0  2579
2 55153  87.9153 317.6448 0001704 113.2959 275.5428 13.18683952    19

Отслеживайте ONEWEB-0588 в реальном времени с AllMySat

Download on the App Store